Find Starlink 1736

NORAD ID: 46585 Int'l Des: 2020-070 Owner: SPXS Country: US Constellation: starlink decayed
LEOCIRCULAR

Re-entered — Jun 15, 2026

正在加载3D地球...

About Starlink 1736

Starlink 1736 (NORAD 46585) is a starlink constellation satellite (v1.0) launched Oct 6, 2020 by SPXS of US. It re-entered the atmosphere on Jun 15, 2026. with a mass of 260.00 kg.

高度历史

Loading altitude history...

两行轨道根数

1 46585U 20070BF 26166.72677462 .11009302 12527-4 34523-3 0 9996
2 46585 53.0176 341.7037 0009224 287.5605 72.4435 16.44221195315882
Epoch: Jun 15, 2026 • Age: 983 hours

当前状态

Position data unavailable
发射日期 Oct 6, 2020
运行时间 5.8 years
衰减日期 Jun 15, 2026
类型 internet

技术详情

分类 Payload
质量 260.00 kg
干质量 248.00 kg
总质量 260.00 kg
长度 0.20 m
直径 2.80 m
跨度 9.00 m
形状 Box + pan
制造商 SPXS
平台类型 Starlink
阶段状态 Unknown Transfer Status
所有者/国家 SPXS/US

Most Searched